Weather History for KCNC - November, 2012

Change the Weather History Date:

Wednesday, November 7, 2012

  Actual Average (KDSM) Record (KDSM)
Temperature  
Mean Temperature 42 °F 44 °F  
Max Temperature 48 °F 53 °F 79 °F (1915)
Min Temperature 35 °F 35 °F -3 °F (1991)
Degree Days  
Heating Degree Days 24 21  
Month to date heating degree days 138  
Since 1 July heating degree days 622  
Cooling Degree Days 0 0  
Month to date cooling degree days 0  
Year to date cooling degree days 1066  
Moisture  
Dew Point 33 °F    
Average Humidity 70    
Maximum Humidity 81    
Minimum Humidity 58    
Precipitation  
Precipitation 0.00 in 0.08 in 1.29 in (1932)
Month to date precipitation 0.59  
Year to date precipitation 33.00  
Snow  
Snow 0.00 in 0.00 in 2.20 in (1925)
Month to date snowfall 0.2  
Since 1 July snowfall 0.6  
Since 1 September snowfall 0.6  
Snow Depth -    
Sea Level Pressure  
Sea Level Pressure 30.11 in    
Wind  
Wind Speed 11 mph (North)    
Max Wind Speed 18 mph    
Max Gust Speed 26 mph    
Visibility 10 miles    
Events      
T = Trace of Precipitation, MM = Missing Value Source: NWS Daily Summary

Daily Weather History Graph

Daily Weather History Graph

Search for Another Location

Airport or City:

Trip Planner

Search our weather history database for the weather conditions in past years. The results will help you decide how hot, cold, wet, or windy it might be!

Date:

Astronomy

Nov. 07, 2012 Rise Set
Actual Time 6:52 AM CST 5:01 PM CST
Civil Twilight 6:23 AM CST 5:30 PM CST
Nautical Twilight 5:50 AM CST 6:03 PM CST
Astronomical Twilight 5:17 AM CST 6:35 PM CST
Moon No Moon Rise 1:14 PM CST (11/7)
Length of Visible Light 11h 07m
Length of Day
10h 09m
Last Quarter, 43% of the Moon is Illuminated
Nov 7
Last Quarter
Nov 13
New
Nov 20
First Quarter
Nov 28
Full
Dec 6
Last Quarter

Hourly Weather History & Observations

Time (CST) Temp. Windchill Dew Point Humidity Pressure Visibility Wind Dir Wind Speed Gust Speed Precip Events Conditions
12:15 AM 48.2 °F - 33.8 °F 58% 30.00 in 10.0 mi NW 17.3 mph 21.9 mph N/A   Overcast
12:35 AM 48.2 °F - 33.8 °F 58% 30.00 in 10.0 mi NW 18.4 mph 25.3 mph N/A   Overcast
12:55 AM 46.4 °F 39.8 °F 33.8 °F 62% 30.00 in 10.0 mi NW 16.1 mph 24.2 mph N/A   Overcast
1:15 AM 46.4 °F 40.1 °F 33.8 °F 62% 30.00 in 10.0 mi NW 15.0 mph 23.0 mph N/A   Overcast
1:35 AM 46.4 °F 39.8 °F 33.8 °F 62% 30.01 in 10.0 mi NW 16.1 mph 24.2 mph N/A   Overcast
1:55 AM 46.4 °F 39.2 °F 33.8 °F 62% 30.01 in 10.0 mi NW 18.4 mph 24.2 mph N/A   Overcast
2:15 AM 46.4 °F 39.2 °F 33.8 °F 62% 30.01 in 10.0 mi NNW 18.4 mph 26.5 mph N/A   Overcast
2:55 AM 46.4 °F 39.2 °F 33.8 °F 62% 30.01 in 10.0 mi NW 18.4 mph 24.2 mph N/A   Overcast
3:15 AM 46.4 °F 39.8 °F 35.6 °F 66% 30.02 in 10.0 mi North 16.1 mph 23.0 mph N/A   Overcast
3:36 AM 44.6 °F 37.4 °F 35.6 °F 71% 30.03 in 10.0 mi North 16.1 mph 21.9 mph N/A   Overcast
3:56 AM 42.8 °F 35.4 °F 37.4 °F 81% 30.04 in 10.0 mi NNW 15.0 mph 21.9 mph N/A   Overcast
4:16 AM 42.8 °F 35.8 °F 35.6 °F 76% 30.04 in 10.0 mi NNW 13.8 mph - N/A   Overcast
4:41 AM 42.8 °F 36.6 °F 35.6 °F 76% 30.05 in 10.0 mi NNW 11.5 mph - N/A   Overcast
4:56 AM 42.8 °F 37.0 °F 35.6 °F 76% 30.06 in 10.0 mi NNW 10.4 mph - N/A   Overcast
5:22 AM 42.8 °F 35.8 °F 35.6 °F 76% 30.06 in 10.0 mi NNW 13.8 mph - N/A   Overcast
5:56 AM 42.8 °F 36.6 °F 35.6 °F 76% 30.08 in 10.0 mi North 11.5 mph 16.1 mph N/A   Overcast
6:17 AM 42.8 °F 37.0 °F 35.6 °F 76% 30.08 in 10.0 mi NNW 10.4 mph - N/A   Overcast
6:37 AM 41.0 °F 35.2 °F 35.6 °F 81% 30.09 in 10.0 mi North 9.2 mph - N/A   Mostly Cloudy
6:57 AM 39.2 °F 33.6 °F 33.8 °F 81% 30.11 in 10.0 mi North 8.1 mph - N/A   Scattered Clouds
7:15 AM 39.2 °F 34.2 °F 33.8 °F 81% 30.12 in 10.0 mi North 6.9 mph - N/A   Clear
7:16 AM 39.2 °F 34.2 °F 33.8 °F 81% 30.12 in 10.0 mi North 6.9 mph - N/A   Clear
7:35 AM 39.2 °F 35.0 °F 33.8 °F 81% 30.12 in 10.0 mi North 5.8 mph - N/A   Clear
7:55 AM 41.0 °F 37.1 °F 35.6 °F 81% 30.13 in 10.0 mi North 5.8 mph - N/A   Clear
8:15 AM 42.8 °F 39.3 °F 35.6 °F 76% 30.14 in 10.0 mi North 5.8 mph - N/A   Clear
8:35 AM 42.8 °F 36.6 °F 35.6 °F 76% 30.14 in 10.0 mi North 11.5 mph 16.1 mph N/A   Scattered Clouds
8:55 AM 44.6 °F 39.2 °F 35.6 °F 71% 30.14 in 10.0 mi North 10.4 mph - N/A   Scattered Clouds
9:15 AM 44.6 °F 39.7 °F 35.6 °F 71% 30.15 in 10.0 mi NNW 9.2 mph - N/A   Scattered Clouds
9:35 AM 44.6 °F 39.2 °F 35.6 °F 71% 30.16 in 10.0 mi North 10.4 mph - N/A   Scattered Clouds
9:55 AM 46.4 °F 42.4 °F 35.6 °F 66% 30.16 in 10.0 mi North 8.1 mph - N/A   Scattered Clouds
10:15 AM 44.6 °F 39.7 °F 33.8 °F 66% 30.16 in 10.0 mi North 9.2 mph - N/A   Scattered Clouds
10:35 AM 46.4 °F 41.9 °F 33.8 °F 62% 30.17 in 10.0 mi North 9.2 mph - N/A   Mostly Cloudy
10:55 AM 46.4 °F 41.5 °F 33.8 °F 62% 30.16 in 10.0 mi North 10.4 mph - N/A   Overcast
11:15 AM 46.4 °F 43.5 °F 35.6 °F 66% 30.16 in 10.0 mi North 5.8 mph - N/A   Mostly Cloudy
11:35 AM 46.4 °F 41.5 °F 33.8 °F 62% 30.16 in 10.0 mi North 10.4 mph - N/A   Overcast
11:55 AM 46.4 °F 42.9 °F 33.8 °F 62% 30.16 in 10.0 mi NNW 6.9 mph - N/A   Overcast
12:15 PM 46.4 °F 42.9 °F 33.8 °F 62% 30.15 in 10.0 mi North 6.9 mph - N/A   Overcast
12:35 PM 46.4 °F 43.5 °F 33.8 °F 62% 30.14 in 10.0 mi NNW 5.8 mph - N/A   Overcast
12:55 PM 46.4 °F 42.9 °F 33.8 °F 62% 30.14 in 10.0 mi NNW 6.9 mph - N/A   Overcast
1:15 PM 48.2 °F - 33.8 °F 58% 30.13 in 10.0 mi North 6.9 mph - N/A   Overcast
1:35 PM 48.2 °F - 33.8 °F 58% 30.13 in 10.0 mi West 6.9 mph - N/A   Overcast
1:55 PM 46.4 °F 44.3 °F 33.8 °F 62% 30.13 in 10.0 mi NW 4.6 mph - N/A   Overcast
2:15 PM 46.4 °F 44.3 °F 33.8 °F 62% 30.12 in 10.0 mi NNW 4.6 mph - N/A   Overcast
2:35 PM 48.2 °F - 35.6 °F 62% 30.12 in 10.0 mi North 6.9 mph - N/A   Overcast
2:55 PM 48.2 °F - 33.8 °F 58% 30.13 in 10.0 mi WNW 4.6 mph - N/A   Overcast
3:15 PM 46.4 °F 45.2 °F 33.8 °F 62% 30.13 in 10.0 mi WNW 3.5 mph - N/A   Overcast
3:35 PM 46.4 °F 44.3 °F 33.8 °F 62% 30.13 in 10.0 mi WSW 4.6 mph - N/A   Overcast
3:55 PM 46.4 °F - 33.8 °F 62% 30.13 in 10.0 mi Calm Calm - N/A   Overcast
4:15 PM 46.4 °F - 33.8 °F 62% 30.13 in 10.0 mi Calm Calm - N/A   Overcast
4:35 PM 46.4 °F 45.2 °F 35.6 °F 66% 30.13 in 10.0 mi East 3.5 mph - N/A   Mostly Cloudy
4:55 PM 44.6 °F 42.2 °F 33.8 °F 66% 30.13 in 10.0 mi ENE 4.6 mph - N/A   Scattered Clouds
5:15 PM 44.6 °F 42.2 °F 33.8 °F 66% 30.13 in 10.0 mi NE 4.6 mph - N/A   Clear
5:35 PM 42.8 °F 40.1 °F 33.8 °F 70% 30.13 in 10.0 mi East 4.6 mph - N/A   Clear
5:55 PM 42.8 °F 40.1 °F 33.8 °F 70% 30.13 in 10.0 mi East 4.6 mph - N/A   Clear
6:15 PM 39.2 °F 37.0 °F 32.0 °F 75% 30.13 in 10.0 mi East 3.5 mph - N/A   Clear
6:35 PM 39.2 °F 35.9 °F 32.0 °F 75% 30.13 in 10.0 mi ESE 4.6 mph - N/A   Clear
6:55 PM 39.2 °F 35.9 °F 32.0 °F 75% 30.13 in 10.0 mi East 4.6 mph - N/A   Clear
7:15 PM 39.2 °F 35.9 °F 32.0 °F 75% 30.13 in 10.0 mi ESE 4.6 mph - N/A   Clear
7:35 PM 39.2 °F 35.9 °F 32.0 °F 75% 30.13 in 10.0 mi ESE 4.6 mph - N/A   Clear
7:55 PM 39.2 °F 37.0 °F 32.0 °F 75% 30.13 in 10.0 mi ESE 3.5 mph - N/A   Clear
8:15 PM 39.2 °F 37.0 °F 30.2 °F 70% 30.13 in 10.0 mi ESE 3.5 mph - N/A   Clear
8:35 PM 37.4 °F 34.9 °F 30.2 °F 75% 30.13 in 10.0 mi SE 3.5 mph - N/A   Clear
8:55 PM 37.4 °F 33.8 °F 30.2 °F 75% 30.13 in 10.0 mi SE 4.6 mph - N/A   Clear
9:15 PM 35.6 °F 30.7 °F 30.2 °F 81% 30.13 in 10.0 mi ESE 5.8 mph - N/A   Clear
9:35 PM 35.6 °F 30.7 °F 30.2 °F 81% 30.14 in 10.0 mi SE 5.8 mph - N/A   Clear
9:55 PM 35.6 °F 31.7 °F 28.4 °F 75% 30.14 in 10.0 mi SE 4.6 mph - N/A   Clear
10:15 PM 35.6 °F 31.7 °F 28.4 °F 75% 30.14 in 10.0 mi SE 4.6 mph - N/A   Clear
10:35 PM 35.6 °F 31.7 °F 28.4 °F 75% 30.13 in 10.0 mi SE 4.6 mph - N/A   Clear
10:55 PM 35.6 °F 31.7 °F 28.4 °F 75% 30.14 in 10.0 mi SE 4.6 mph - N/A   Clear
11:15 PM 35.6 °F 30.7 °F 30.2 °F 81% 30.14 in 10.0 mi SE 5.8 mph - N/A   Clear
11:35 PM 35.6 °F 30.7 °F 30.2 °F 81% 30.14 in 10.0 mi SSE 5.8 mph - N/A   Clear
11:55 PM 35.6 °F 29.9 °F 30.2 °F 81% 30.13 in 10.0 mi SSE 6.9 mph - N/A   Clear